Terminal Aerodrome Forecast
Issued by NWS Chicago, IL

Home | Current Version | Previous Version | Graphics & Text | Print | Product List | Glossary On
Versions: 1 2 3 4 5 6 7 8 9 10 11 12 13 14 15 16 17 18 19 20 21 22 23 24 25 26 27 28 29 30 31 32 33 34 35 36
000
FTUS43 KLOT 281900 AAA
TAFRFD
TAF AMD
KRFD 281948Z 2820/2918 08005KT P6SM SCT250
     FM290200 00000KT P6SM FEW250
     FM290700 VRB02KT 3SM BR MIFG SKC
      TEMPO 2908/2912 1SM BR
     FM291400 VRB03KT P6SM FEW250=

USA.gov is the U.S. government's official web portal to all federal, state and local government web resources and services.